LU8FCJ-5 Weather Reports


time (UTC)temp
F
wind
direction
speed
knots
gust
knots
rain 1hr
in
rain 24hr
in
rain mn
in
humidity
%
barometer
mb
20260507191537 60 203 20.0 26.9 0.00 0.00 0.00 60 1004.3
20260507191031 59 225 18.2 26.1 0.00 0.00 0.00 60 1004.5
20260507190516 59 225 18.2 26.1 0.00 0.00 0.00 60 1005.0
20260507190018 59 203 14.8 25.2 0.00 0.00 0.00 61 1005.1
20260507185501 59 203 13.9 25.2 0.00 0.00 0.00 61 1004.9
20260507184945 59 203 14.8 26.1 0.00 0.00 0.00 61 1004.9
20260507184435 59 203 16.5 26.1 0.00 0.00 0.00 61 1004.8
20260507183925 59 225 18.2 23.5 0.00 0.00 0.00 61 1004.7
20260507183415 59 203 16.5 23.5 0.00 0.00 0.00 60 1005.2
20260507182905 59 203 17.4 23.5 0.00 0.00 0.00 60 1005.3
20260507182355 60 225 13.0 21.7 0.00 0.00 0.00 59 1005.4
20260507181841 60 225 17.4 23.5 0.00 0.00 0.00 59 1005.5
20260507181331 60 203 16.5 25.2 0.00 0.00 0.00 59 1005.5
20260507180825 60 225 19.1 26.9 0.00 0.00 0.00 58 1005.6
20260507180314 60 225 19.1 26.9 0.00 0.00 0.00 58 1005.7
20260507175804 60 203 21.7 27.8 0.00 0.00 0.00 57 1005.7
20260507175254 61 203 20.0 27.8 0.00 0.00 0.00 56 1005.8
20260507174744 61 248 19.1 26.9 0.00 0.00 0.00 55 1005.6
20260507174234 62 225 18.2 23.5 0.00 0.00 0.00 54 1005.9
20260507173724 62 225 16.5 25.2 0.00 0.00 0.00 55 1005.7
20260507173214 61 203 18.2 26.1 0.00 0.00 0.00 56 1005.9
20260507172703 61 203 20.0 26.1 0.00 0.00 0.00 56 1005.8
20260507172153 62 203 14.8 25.2 0.00 0.00 0.00 56 1006.0
20260507171656 62 225 18.2 26.9 0.00 0.00 0.00 55 1006.2
20260507171134 61 225 18.2 27.8 0.00 0.00 0.00 56 1006.2
20260507170623 61 203 23.5 29.5 0.00 0.00 0.00 54 1006.0
20260507170115 61 248 20.9 29.5 0.00 0.00 0.00 55 1005.8
20260507165602 61 225 22.6 29.5 0.00 0.00 0.00 55 1005.8
20260507165052 61 225 18.2 27.8 0.00 0.00 0.00 55 1005.8
20260507164542 60 225 20.0 27.8 0.00 0.00 0.00 56 1005.6
20260507164038 61 203 17.4 26.9 0.00 0.00 0.00 56 1005.8
20260507163522 61 225 13.9 26.9 0.00 0.00 0.00 56 1005.6
20260507163012 60 203 20.0 27.8 0.00 0.00 0.00 56 1005.8
20260507162501 60 248 23.5 29.5 0.00 0.00 0.00 56 1006.0
20260507161951 60 225 20.0 29.5 0.00 0.00 0.00 56 1005.8
20260507161442 60 225 20.9 29.5 0.00 0.00 0.00 55 1005.8
20260507160931 61 248 23.5 29.5 0.00 0.00 0.00 55 1005.5
20260507160426 61 203 20.9 26.9 0.00 0.00 0.00 55 1005.8
20260507155911 61 225 20.0 29.5 0.00 0.00 0.00 56 1005.8
20260507155401 61 203 20.9 29.5 0.00 0.00 0.00 55 1005.7
20260507154851 61 225 20.0 29.5 0.00 0.00 0.00 55 1005.9
20260507154340 61 225 20.0 26.1 0.00 0.00 0.00 57 1006.3
20260507153830 60 225 17.4 26.9 0.00 0.00 0.00 58 1006.0
20260507153321 59 225 20.9 27.8 0.00 0.00 0.00 58 1006.0
20260507152810 59 225 19.1 27.8 0.00 0.00 0.00 59 1006.2
20260507152300 59 225 20.0 26.9 0.00 0.00 0.00 59 1006.4
20260507151750 59 225 18.2 26.9 0.00 0.00 0.00 59 1006.1
20260507151239 58 225 20.0 26.9 0.00 0.00 0.00 59 1005.9
20260507150730 59 225 20.0 26.9 0.00 0.00 0.00 59 1005.7
20260507150219 58 225 18.2 27.8 0.00 0.00 0.00 58 1005.8
20260507145709 58 225 19.1 27.8 0.00 0.00 0.00 58 1005.6
20260507145200 59 225 18.2 26.9 0.00 0.00 0.00 59 1005.6
20260507144649 58 225 20.0 26.1 0.00 0.00 0.00 59 1006.0
20260507144138 58 225 16.5 23.5 0.00 0.00 0.00 60 1006.0
20260507143629 58 225 18.2 23.5 0.00 0.00 0.00 60 1006.2
20260507143119 58 225 14.8 23.5 0.00 0.00 0.00 60 1006.3
20260507142840 58 225 18.2 25.2 0.00 0.00 0.00 60 1006.5
20260507142614 58 225 18.2 25.2 0.00 0.00 0.00 60 1006.5
20260507142058 58 203 16.5 25.2 0.00 0.00 0.00 60 1006.3
20260507141548 58 225 16.5 25.2 0.00 0.00 0.00 61 1006.3
20260507141038 57 225 18.2 26.1 0.00 0.00 0.00 61 1006.1
20260507140528 57 225 15.6 26.9 0.00 0.00 0.00 61 1006.3
20260507140018 57 203 19.1 26.9 0.00 0.00 0.00 61 1006.3
20260507135513 57 248 15.6 25.2 0.00 0.00 0.00 61 1006.2
20260507134957 57 203 15.6 26.1 0.00 0.00 0.00 61 1005.9
20260507134447 57 225 20.0 29.5 0.00 0.00 0.00 61 1005.7
20260507133937 57 225 18.2 29.5 0.00 0.00 0.00 61 1005.7
20260507133427 57 225 20.0 26.9 0.00 0.00 0.00 60 1005.2
20260507132919 58 225 18.2 26.9 0.00 0.00 0.00 60 1004.8
20260507132406 58 225 19.1 26.1 0.00 0.00 0.00 60 1005.0
20260507131856 58 203 21.7 27.8 0.00 0.00 0.00 60 1004.3
20260507131346 58 225 20.0 27.8 0.00 0.00 0.00 60 1004.2
20260507130849 58 225 18.2 27.8 0.00 0.00 0.00 60 1004.8
20260507130326 58 225 17.4 26.9 0.00 0.00 0.00 62 1004.3
20260507125815 57 225 22.6 26.9 0.00 0.00 0.00 61 1004.8
20260507125307 57 225 19.1 26.9 0.00 0.00 0.00 62 1004.7
20260507124755 57 248 18.2 29.5 0.00 0.00 0.00 63 1005.0
20260507124246 57 225 18.2 29.5 0.00 0.00 0.00 63 1004.8
20260507123735 57 225 15.6 25.2 0.00 0.00 0.00 64 1004.7
20260507123226 57 225 18.2 25.2 0.00 0.00 0.00 65 1004.8
20260507122716 57 225 18.2 26.9 0.00 0.00 0.00 65 1004.3
20260507122205 57 248 16.5 26.9 0.00 0.00 0.00 66 1004.5
20260507121655 57 225 18.2 23.5 0.00 0.00 0.00 66 1004.3
20260507121145 57 203 15.6 21.7 0.00 0.00 0.00 67 1004.4
20260507120635 57 225 16.5 21.7 0.00 0.00 0.00 67 1004.2
20260507120128 57 225 15.6 21.7 0.00 0.00 0.00 67 1004.4
20260507115614 57 225 13.9 20.9 0.00 0.00 0.00 67 1004.3
20260507115106 57 225 17.4 20.0 0.00 0.00 0.00 66 1004.5
20260507114554 57 225 14.8 20.0 0.00 0.00 0.00 67 1004.5
20260507114043 57 225 12.2 15.6 0.00 0.00 0.00 67 1005.1
20260507113534 57 248 13.0 15.6 0.00 0.00 0.00 66 1005.4
20260507113033 57 225 12.2 14.8 0.00 0.00 0.00 66 1005.1
20260507112519 57 203 9.6 20.0 0.00 0.00 0.00 66 1005.6
20260507112004 57 203 11.3 20.0 0.00 0.00 0.00 66 1005.2
20260507111454 57 203 13.0 18.2 0.00 0.00 0.00 66 1005.1
20260507110943 57 203 13.0 20.0 0.00 0.00 0.00 66 1004.6
20260507110432 57 203 15.6 20.0 0.00 0.00 0.00 66 1005.0
20260507105924 57 203 13.0 20.0 0.00 0.00 0.00 67 1005.0
20260507105412 58 180 14.8 20.0 0.00 0.00 0.00 66 1005.3
20260507104902 58 180 13.0 20.0 0.00 0.00 0.00 65 1005.6
20260507104352 58 203 14.8 21.7 0.00 0.00 0.00 65 1005.5
20260507103842 58 203 13.0 21.7 0.00 0.00 0.00 65 1006.0
20260507103332 58 203 16.5 20.9 0.00 0.00 0.00 64 1005.7
20260507102823 58 203 14.8 20.0 0.00 0.00 0.00 65 1005.5
20260507102312 58 203 9.6 19.1 0.00 0.00 0.00 65 1005.6
20260507101801 58 203 9.6 19.1 0.00 0.00 0.00 65 1005.5
20260507101253 58 203 14.8 20.0 0.00 0.00 0.00 65 1005.5
20260507100741 59 203 14.8 20.0 0.00 0.00 0.00 64 1005.2
20260507100231 58 203 8.7 20.0 0.00 0.00 0.00 65 1005.4
20260507095722 59 203 14.8 20.0 0.00 0.00 0.00 64 1005.8
20260507095211 59 203 12.2 23.5 0.00 0.00 0.00 65 1006.2
20260507094702 59 225 14.8 23.5 0.00 0.00 0.00 63 1005.8
20260507094151 59 203 14.8 23.5 0.00 0.00 0.00 63 1005.7
20260507093641 59 203 15.6 23.5 0.00 0.00 0.00 64 1005.5
20260507093143 59 225 14.8 25.2 0.00 0.00 0.00 64 1005.3
20260507092622 59 225 13.0 25.2 0.00 0.00 0.00 65 1005.4
20260507092110 60 203 14.8 20.9 0.00 0.00 0.00 66 1005.2
20260507091613 60 225 14.8 20.9 0.00 0.00 0.00 66 1005.0
20260507091049 60 180 14.8 20.0 0.00 0.00 0.00 68 1005.1
20260507090552 60 203 14.8 20.0 0.00 0.00 0.00 69 1005.5
20260507090030 60 203 13.0 19.1 0.00 0.00 0.00 71 1005.3
20260507085520 60 203 13.0 20.9 0.00 0.00 0.00 72 1005.5
20260507085009 60 203 14.8 20.9 0.00 0.00 0.00 73 1005.7
20260507084458 60 180 14.8 20.0 0.00 0.00 0.00 74 1005.4
20260507083948 61 225 14.8 23.5 0.00 0.00 0.00 75 1005.4
20260507083438 61 203 15.6 23.5 0.00 0.00 0.00 76 1005.3
20260507082928 61 203 15.6 26.1 0.00 0.00 0.00 76 1005.1
20260507082422 61 203 14.8 27.8 0.00 0.00 0.00 77 1004.9
20260507081909 61 203 20.9 29.5 0.00 0.00 0.00 78 1005.1
20260507081358 61 203 19.1 29.5 0.00 0.00 0.00 78 1005.1
20260507080848 62 203 20.0 29.5 0.00 0.00 0.00 79 1005.2
20260507080337 62 203 16.5 20.9 0.00 0.00 0.00 85 1005.3
20260507075828 62 203 13.0 20.0 0.00 0.00 0.00 88 1005.1
20260507075324 62 225 13.9 20.0 0.00 0.00 0.00 89 1005.1
20260507074807 63 225 13.0 20.0 0.00 0.00 0.00 91 1004.9
20260507074258 63 203 13.0 20.0 0.00 0.00 0.00 92 1005.0
20260507073747 63 203 9.6 17.4 0.00 0.00 0.00 92 1005.0
20260507073237 63 248 9.6 13.9 0.00 0.00 0.00 92 1005.1
20260507072727 62 203 9.6 12.2 0.00 0.00 0.00 93 1005.3
20260507072221 62 225 7.0 11.3 0.00 0.00 0.00 93 1005.3
20260507071720 62 225 6.1 9.6 0.00 0.00 0.00 93 1005.6
20260507071157 62 203 6.1 9.6 0.00 0.00 0.00 93 1005.4
20260507070646 62 203 7.0 9.6 0.00 0.00 0.00 93 1005.3
20260507070136 62 203 6.1 9.6 0.00 0.00 0.00 93 1004.8
20260507065635 62 203 5.2 9.6 0.00 0.00 0.00 93 1004.6
20260507065129 62 225 7.0 9.6 0.00 0.00 0.00 93 1004.1
20260507064605 62 203 5.2 9.6 0.00 0.00 0.00 93 1004.1
20260507064055 62 203 6.1 11.3 0.00 0.00 0.00 93 1003.9
20260507063557 62 203 5.2 11.3 0.00 0.00 0.00 92 1004.1
20260507063037 62 203 7.8 11.3 0.00 0.00 0.00 93 1003.8
20260507062525 62 203 7.8 11.3 0.00 0.00 0.00 92 1004.0
20260507062028 62 203 7.8 12.2 0.00 0.00 0.00 92 1003.7
20260507061504 62 203 7.0 12.2 0.00 0.00 0.00 92 1003.9
20260507060954 62 203 7.0 9.6 0.00 0.00 0.00 92 1003.9
20260507060445 62 203 7.8 9.6 0.00 0.00 0.00 92 1003.9
20260507055934 62 203 6.1 7.0 0.00 0.00 0.00 92 1003.8
20260507055424 62 180 4.3 7.0 0.00 0.00 0.00 92 1003.6
20260507054915 62 203 3.5 7.0 0.00 0.00 0.00 91 1003.7
20260507054403 62 203 3.5 7.0 0.00 0.00 0.00 91 1003.5
20260507053854 62 203 3.5 7.0 0.00 0.00 0.00 90 1003.3
20260507053343 63 203 5.2 7.8 0.00 0.00 0.00 89 1003.3
20260507052834 64 203 4.3 12.2 0.00 0.00 0.00 89 1003.4
20260507052324 64 203 6.1 12.2 0.00 0.00 0.00 89 1002.8
20260507051813 64 203 7.8 11.3 0.00 0.00 0.00 88 1002.6
20260507051303 64 203 7.0 9.6 0.00 0.00 0.00 88 1002.2
20260507050753 64 225 7.0 11.3 0.00 0.00 0.00 88 1002.6
20260507050243 64 225 7.8 11.3 0.00 0.00 0.00 88 1002.0
20260507045732 64 203 8.7 12.2 0.00 0.00 0.00 88 1001.7
20260507045223 65 225 7.8 12.2 0.00 0.00 0.00 87 1001.8
20260507044712 65 225 7.0 12.2 0.00 0.00 0.00 86 1002.0
20260507044203 65 248 7.8 12.2 0.00 0.00 0.00 87 1002.2
20260507043652 65 270 7.0 12.2 0.00 0.00 0.00 86 1002.1
20260507043142 65 248 7.0 9.6 0.00 0.00 0.00 87 1001.9
20260507042632 65 248 3.5 5.2 0.00 0.00 0.00 88 1002.2
20260507042122 65 225 2.6 5.2 0.00 0.00 0.00 87 1002.6
20260507041615 65 248 1.7 3.5 0.00 0.00 0.00 86 1002.9
20260507041102 66 248 1.7 3.5 0.00 0.00 0.00 85 1003.5
20260507040552 67 225 1.7 3.5 0.00 0.00 0.00 83 1003.3
20260507040104 67 180 1.7 3.5 0.00 0.00 0.00 83 1003.7
20260507035531 67 225 0.0 0.0 0.00 0.00 0.00 84 1004.1
20260507035024 67 225 0.0 1.7 0.00 0.00 0.00 83 1004.0
20260507034515 68 158 0.0 3.5 0.00 0.00 0.00 83 1003.8
20260507034001 68 158 0.9 3.5 0.00 0.00 0.00 83 1003.5
20260507033451 68 158 1.7 6.1 0.00 0.00 0.00 83 1003.0
20260507032941 68 180 1.7 7.8 0.00 0.00 0.00 83 1003.3
20260507032430 68 203 4.3 9.6 0.00 0.00 0.00 83 1002.3
20260507031920 68 180 7.0 9.6 0.00 0.00 0.00 83 1001.7
20260507031416 68 203 5.2 11.3 0.00 0.00 0.00 82 1003.0
20260507030859 69 203 5.2 15.6 0.00 0.00 0.00 82 1002.7
20260507030349 69 203 9.6 15.6 0.00 0.00 0.00 82 1002.5
20260507025839 69 203 13.0 15.6 0.00 0.00 0.00 81 1001.8
20260507025329 69 225 10.4 15.6 0.00 0.00 0.00 82 1001.7
20260507024819 70 203 11.3 15.6 0.00 0.00 0.00 84 1000.8
20260507024309 71 203 12.2 17.4 0.00 0.00 0.00 83 1000.9
20260507023759 71 225 12.2 17.4 0.00 0.00 0.00 86 1002.0
20260507023248 71 225 13.0 15.6 0.00 0.00 0.00 87 1001.9
20260506222813 76 248 3.5 5.2 0.00 0.00 0.00 81 1001.1
20260506222305 76 270 2.6 3.5 0.00 0.00 0.00 82 1001.0
20260506221753 76 270 1.7 1.7 0.00 0.00 0.00 82 1000.9
20260506221242 76 270 1.7 3.5 0.00 0.00 0.00 81 1000.9
20260506220732 76 270 1.7 3.5 0.00 0.00 0.00 81 1000.9
20260506220222 76 293 1.7 3.5 0.00 0.00 0.00 81 1000.8
20260506215711 77 270 2.6 3.5 0.00 0.00 0.00 80 1000.8
20260506215201 77 270 2.6 3.5 0.00 0.00 0.00 80 1000.7
20260506214652 78 270 3.5 5.2 0.00 0.00 0.00 79 1000.8
20260506214142 78 248 2.6 6.1 0.00 0.00 0.00 78 1000.7
20260506213123 79 248 3.5 5.2 0.00 0.00 0.00 78 1000.7
20260506212612 79 248 2.6 3.5 0.00 0.00 0.00 78 1000.6
20260506212100 79 270 2.6 3.5 0.00 0.00 0.00 77 1000.8
20260506211551 79 248 1.7 3.5 0.00 0.00 0.00 76 1000.9
20260506211040 80 270 1.7 3.5 0.00 0.00 0.00 76 1000.6
20260506210530 80 248 1.7 3.5 0.00 0.00 0.00 75 1000.8
20260506210025 81 248 1.7 3.5 0.00 0.00 0.00 74 1000.6
20260506205510 82 270 1.7 3.5 0.00 0.00 0.00 73 1000.4
20260506205000 82 270 1.7 5.2 0.00 0.00 0.00 72 1000.3
20260506204450 82 270 2.6 5.2 0.00 0.00 0.00 72 1000.4
20260506203940 83 270 2.6 5.2 0.00 0.00 0.00 72 1000.2
20260506203429 83 293 2.6 5.2 0.00 0.00 0.00 71 1000.1
20260506202933 83 293 2.6 5.2 0.00 0.00 0.00 71 1000.0
20260506202410 84 293 2.6 5.2 0.00 0.00 0.00 70 1000.2
20260506201900 84 293 1.7 7.0 0.00 0.00 0.00 70 1000.3
20260506201349 84 293 3.5 7.0 0.00 0.00 0.00 70 1000.3
20260506200838 84 293 3.5 7.8 0.00 0.00 0.00 70 1000.3
20260506200329 84 315 3.5 9.6 0.00 0.00 0.00 69 1000.0
20260506195819 84 315 5.2 9.6 0.00 0.00 0.00 69 1000.2
20260506195308 84 293 7.0 7.8 0.00 0.00 0.00 69 1000.2
20260506194759 84 338 5.2 7.0 0.00 0.00 0.00 69 1000.1
20260506194251 85 338 4.3 7.8 0.00 0.00 0.00 68 1000.7
20260506193738 85 315 3.5 7.8 0.00 0.00 0.00 68 1000.4
20260506193228 85 0 6.1 7.8 0.00 0.00 0.00 68 1000.4
20260506192718 85 315 3.5 11.3 0.00 0.00 0.00 69 1000.7
20260506192209 85 315 5.2 12.2 0.00 0.00 0.00 68 1000.8